This demonstration page uses our WeatherBlox Daily Observations layout. Learn more.

Left ArrowRight Arrow

30.21309, -93.2044

Hourly Observations for July 9, 2021

Temp ( °F °C ) Dew Point ( °F °C ) Humidity (%) Winds ( mph kmh ) Pressure ( in mb ) Visibility ( mi km ) Precip ( " mm )
12:15 am 00:15 Cloudy 74 23.6 73 22.7 95 95 E 6 9 30.02 1017 10 16 0.00 0.00
12:35 am 00:35 Cloudy 74 23.6 73 22.6 94 94 E 7 11 30.02 1017 10 16 0.00 0.00
12:55 am 00:55 Mostly Cloudy 74 23.6 73 22.6 94 94 E 6 9 30.02 1017 10 16 0.00 0.00
1:15 am 01:15 Cloudy 74 23.6 73 22.6 94 94 E 7 11 30.02 1017 10 16 0.00 0.00
1:35 am 01:35 Cloudy 74 23.6 73 22.6 94 94 E 8 13 30.02 1017 10 16 0.00 0.00
1:55 am 01:55 Partly Cloudy 74 23.6 73 22.6 94 94 E 8 13 30.02 1017 10 16 0.00 0.00
2:15 am 02:15 Clear 75 23.7 73 22.7 94 94 E 8 13 30.03 1017 10 16 0.00 0.00
2:35 am 02:35 Mostly Cloudy 75 23.7 73 22.7 94 94 E 7 11 30.03 1017 10 16 0.00 0.00
2:55 am 02:55 Cloudy with Light Rain 75 23.8 73 22.8 94 94 E 6 9 30.03 1017 10 16 0.00 0.00
3:15 am 03:15 Cloudy 75 23.9 73 22.9 94 94 E 6 9 30.03 1017 10 16 0.00 0.00
3:35 am 03:35 Mostly Cloudy with Light Rain 75 23.9 73 22.8 94 94 E 3 6 30.03 1017 10 16 0.00 0.00
3:55 am 03:55 Cloudy 75 23.9 73 22.9 94 94 E 5 7 30.03 1017 10 16 0.00 0.00
4:15 am 04:15 Mostly Cloudy 75 23.9 73 22.9 94 94 SE 3 6 30.03 1017 10 16 0.01 0.25
4:35 am 04:35 Partly Cloudy 75 23.9 73 23 95 95 E 5 7 30.03 1017 10 16 0.01 0.25
4:55 am 04:55 Partly Cloudy 75 24 74 23.1 95 95 ENE 3 6 30.03 1017 10 16 0.01 0.25
5:15 am 05:15 Partly Cloudy 75 24 74 23.1 95 95 E 7 11 30.03 1017 10 16 0.00 0.00
5:35 am 05:35 Clear 75 24.1 74 23.2 95 95 E 7 11 30.03 1017 10 16 0.00 0.00
6:00 am 06:00 Mostly Clear 75 24 73 23 94 94 E 7 11 30.03 1017 10 16 0.00 0.00
6:49 am 06:49 Partly Cloudy 75 24 73 23 94 94 ESE 7 11 30.03 1017 10 16 0.00 0.00
7:55 am 07:55 Mostly Cloudy 77 25 75 24 94 94 E 5 7 30.06 1018 10 16 0.00 0.00
8:53 am 08:53 Cloudy 79 26 75 24 89 89 E 6 9 30.08 1019 10 16 0.00 0.00
9:55 am 09:55 Cloudy 79 26 75 24 89 89 ESE 5 7 30.10 1019 10 16 0.00 0.00
10:50 am 10:50 Cloudy 81 27 77 25 89 89 SE 6 9 30.11 1020 10 16 0.00 0.00
11:46 am 11:46 Cloudy 82 28 79 26 89 89 SE 7 11 30.11 1020 10 16 0.00 0.00
12:55 pm 12:55 Mostly Cloudy 84 29 79 26 84 84 SE 13 20 30.10 1019 10 16 0.00 0.00
2:50 pm 14:50 Cloudy 82 28 73 23 74 74 S 9 15 30.09 1019 10 16 0.00 0.00
3:55 pm 15:55 Cloudy 84 29 77 25 79 79 S 10 17 30.07 1018 10 16 0.00 0.00
4:50 pm 16:50 Cloudy 84 29 77 25 79 79 S 9 15 30.07 1018 10 16 0.00 0.00
5:50 pm 17:50 Partly Cloudy 84 29 79 26 84 84 S 7 11 30.05 1018 10 16 0.00 0.00
6:55 pm 18:55 Partly Cloudy 82 28 77 25 84 84 SSE 7 11 30.07 1018 10 16 0.00 0.00
7:50 pm 19:50 Partly Cloudy 82 28 77 25 84 84 SSE 3 6 30.08 1019 10 16 0.00 0.00
8:50 pm 20:50 Cloudy with Light Rain 79 26 73 23 84 84 W 9 15 30.08 1019 10 16 0.00 0.00
9:50 pm 21:50 Cloudy 75 24 73 23 94 94 Calm 30.09 1019 10 16 0.00 0.00
10:15 pm 22:15 Cloudy 77 24.8 74 23.3 91 91 Calm 30.10 1019 10 16 0.00 0.00
10:35 pm 22:35 Cloudy 77 24.9 74 23.5 92 92 Calm 30.09 1019 10 16 0.00 0.00
10:55 pm 22:55 Cloudy 76 24.7 74 23.6 94 94 ESE 3 6 30.08 1019 10 16 0.00 0.00
11:15 pm 23:15 Cloudy 76 24.7 74 23.6 94 94 ESE 3 6 30.08 1019 10 16 0.00 0.00
11:35 pm 23:35 Cloudy 77 25.1 75 24 94 94 Calm 30.08 1019 10 16 0.00 0.00
11:55 pm 23:55 Cloudy 78 25.4 76 24.3 94 94 ENE 3 6 30.08 1019 10 16 0.00 0.00

Powered by AerisWeather